Overview Statistics Trail Chart Weather Telemetry Raw packets
 

This is the latest recevied weather packets stored in our database for station/object LA4M-10. If no packets are shown the sender has not sent any weather packets the latest 10 day(s).

<< 22 23 24 25 26 27 28 >>
Time Temp. Humidity Pressure Rain* Wind** Luminosity Snow
1787977347 13.33° C 100% 937 hPa - - - -
1787976447 13.33° C 100% 937 hPa - - - -
1787975547 13.33° C 100% 936.9 hPa - - - -
1787974647 13.33° C 100% 937.3 hPa - - - -
1787973747 13.33° C 100% 937.6 hPa - - - -
1787972847 13.33° C 100% 937.5 hPa - - - -
1787971947 13.33° C 100% 938.8 hPa - - - -
1787971047 13.33° C 100% 938.5 hPa - - - -
1787970147 13.33° C 100% 937.9 hPa - - - -
1787969246 13.33° C 100% 938.3 hPa - - - -
1787968346 13.33° C 100% 939 hPa - - - -
1787967446 12.78° C 100% 938.9 hPa - - - -
1787966546 12.22° C 100% 939.4 hPa - - - -
1787965646 12.22° C 100% 939.5 hPa - - - -
1787964746 13.33° C 100% 940.5 hPa - - - -
1787963846 12.22° C 100% 940.1 hPa - - - -
1787962946 11.67° C 100% 940.3 hPa - - - -
1787962045 11.67° C 100% 940.9 hPa - - - -
1787961145 12.22° C 100% 941 hPa - - - -
1787960244 12.22° C 100% 941.6 hPa - - - -
1787959344 11.67° C 100% 941.5 hPa - - - -
1787958444 11.67° C 100% 941.3 hPa - - - -
1787957544 11.67° C 100% 942.3 hPa - - - -
1787956644 12.22° C 100% 942.3 hPa - - - -
1787955744 12.22° C 100% 942.9 hPa - - - -

* Rain since midnight (hover to see other rain measurements)
** Current wind speed in m/s (hover to see current wind gust speed)